Location: Torrington
(42.0650°N, 104.1810°W)
Time: 22:24:54
(UTC-06:00)

Amateur Radio Satellites - All Passes

Search period start: 01 September 2015 21:54
Search period end: 02 September 2015 21:54
Location: Torrington, 42.0650°N, 104.1810°W

Satellite Date Start Highest point End Downlink Frequencies (MHz)
Time Altitude Azimuth
HO-68 01 Sep 21:58:26 22:04:22 26° 268° (W) 22:10:08 435.675
CINEMA 3 01 Sep 22:01:05 22:05:03 26° 268° (W) 22:09:06 145.822/145.860
CANX-2 01 Sep 22:01:29 22:03:26 12° 272° (W) 22:05:11 2200.000
50 SAT 01 Sep 22:01:30 22:03:46 15° 66° (ENE) 22:06:11 437.505
Cosmos 2504 01 Sep 22:12:32 22:18:16 22° 80° (E) 22:24:32 435.465 / 435.565
HUMSAT D 01 Sep 22:15:03 22:19:14 52° 74° (ENE) 22:23:29 437.325/437.525
ANTELSAT 01 Sep 22:16:08 22:17:32 11° 87° (E) 22:19:12 437.575/2403.000
Cosmos 2491 01 Sep 22:19:25 22:26:01 23° 278° (W) 22:32:15 435.465 / 435.565
SEEDS 01 Sep 22:22:15 22:23:02 10° 273° (W) 22:23:32 437.485
DX 1 01 Sep 22:23:53 22:27:53 39° 71° (ENE) 22:31:58 434.975-435.025
YUBILEINY 01 Sep 22:25:03 22:33:32 50° 286° (WNW) 22:42:03 435.215
Oscar 11 01 Sep 22:30:27 22:34:10 27° 265° (W) 22:37:51 145.826/435.025
RS-15 01 Sep 22:31:04 22:40:28 28° 21° (NNE) 22:50:24 29.354- 29.394
UKube-1 01 Sep 22:34:36 22:38:42 45° 72° (ENE) 22:42:51 .
BEESAT 3 01 Sep 22:41:37 22:44:36 20° 43° (NE) 22:47:37 437.485
ESTCUBE 1 01 Sep 22:41:41 22:45:32 29° 69° (ENE) 22:49:25 437.505/2401.250
CUBEBUG 1 01 Sep 22:48:01 22:51:37 27° 69° (ENE) 22:55:19 437.445
AISAT 01 Sep 22:50:17 22:54:31 49° 72° (ENE) 22:58:49 437.250
BEESAT 2 01 Sep 22:55:19 22:58:24 21° 44° (NE) 23:01:31 435.950
QB50P1 01 Sep 23:00:27 23:01:53 12° 88° (E) 23:03:35 145.935-145.965
UNISAT 6 01 Sep 23:04:50 23:09:06 39° 97° (E) 23:13:17 437.425
DELFI C3 01 Sep 23:05:19 23:07:54 16° 269° (W) 23:10:21 145.870
ZACube-1 01 Sep 23:17:19 23:20:03 15° 271° (W) 23:22:36 437.345
VELOX 1 01 Sep 23:17:59 23:22:23 87° 254° (WSW) 23:26:50 145.980
FUNcube-1 01 Sep 23:22:32 23:24:57 14° 272° (W) 23:27:11 145.935
TIGRISAT 01 Sep 23:32:43 23:37:19 75° 102° (ESE) 23:41:46 435.000
50 SAT 01 Sep 23:34:10 23:37:58 43° 262° (W) 23:41:46 437.505
TISAT 1 01 Sep 23:39:23 23:42:07 17° 66° (ENE) 23:44:59 437.305
AIST 2 01 Sep 23:39:54 23:42:14 15° 39° (NE) 23:44:39 435.215
AUBIESAT-1 01 Sep 23:49:07 23:52:59 58° 105° (ESE) 23:56:31 437.475
ANTELSAT 01 Sep 23:50:22 23:54:56 69° 285° (WNW) 23:59:21 437.575/2403.000
HUMSAT D 01 Sep 23:52:55 23:55:20 14° 271° (W) 23:57:34 437.325/437.525
M-CUBED/EXP-1 PRIME 01 Sep 23:55:34 23:59:34 86° 106° (ESE) 00:03:13 437.505
POLYITAN 1 02 Sep 00:00:19 00:04:34 56° 100° (E) 00:08:47 437.675
DX 1 02 Sep 00:01:10 00:04:19 19° 268° (W) 00:07:23 434.975-435.025
Cosmos 2504 02 Sep 00:01:25 00:09:35 78° 279° (W) 00:18:14 435.465 / 435.565
DUCHIFAT 1 02 Sep 00:01:49 00:06:02 54° 100° (E) 00:10:13 145.980
POPSAT HIP 1 02 Sep 00:02:25 00:06:42 58° 101° (E) 00:10:55 437.405
BUGSAT 1 02 Sep 00:04:20 00:08:17 36° 97° (E) 00:12:14 437.445
UKube-1 02 Sep 00:12:21 00:15:06 16° 269° (W) 00:17:44 .
SPROUT 02 Sep 00:14:07 00:18:23 71° 75° (ENE) 00:22:42 437.525
CUSAT 1 02 Sep 00:14:32 00:18:29 71° 96° (E) 00:23:49 437.405
ESTCUBE 1 02 Sep 00:18:31 00:22:23 27° 265° (W) 00:26:11 437.505/2401.250
BEESAT 3 02 Sep 00:18:54 00:22:47 46° 242° (WSW) 00:26:34 437.485
QB50P2 02 Sep 00:19:41 00:24:01 87° 284° (WNW) 00:28:18 145.880/145.840
NANOSAT C BR1 02 Sep 00:19:43 00:24:03 89° 101° (E) 00:28:19 145.865
CUBEBUG 1 02 Sep 00:24:12 00:27:56 27° 265° (W) 00:31:38 437.445
AISAT 02 Sep 00:28:40 00:31:25 16° 270° (W) 00:34:01 437.250
ITUPSAT 1 02 Sep 00:30:46 00:32:38 12° 61° (ENE) 00:34:43 437.325
BEESAT 2 02 Sep 00:32:47 00:36:40 44° 242° (WSW) 00:40:28 435.950
QB50P1 02 Sep 00:33:59 00:38:15 62° 285° (WNW) 00:42:28 145.935-145.965
SO-50 02 Sep 00:39:22 00:43:44 37° 116° (ESE) 00:48:16 436.795
UNISAT 6 02 Sep 00:42:08 00:45:39 21° 294° (WNW) 00:48:58 437.425
RS-15 02 Sep 00:44:07 00:55:51 66° 50° (NE) 01:08:02 29.354- 29.394
PCSat 02 Sep 00:48:39 00:52:15 19° 107° (ESE) 00:56:04 145.827
DANDE 02 Sep 00:51:51 00:55:24 76° 280° (W) 01:00:12 436.750
BEESAT 02 Sep 01:00:59 01:04:46 25° 67° (ENE) 01:08:39 436.000
TIGRISAT 02 Sep 01:11:33 01:13:28 12° 298° (WNW) 01:15:09 435.000
TISAT 1 02 Sep 01:13:33 01:17:34 43° 261° (W) 01:21:37 437.305
AIST 2 02 Sep 01:17:10 01:21:22 78° 240° (WSW) 01:25:28 435.215
GONETS M04 02 Sep 01:20:19 01:24:52 16° 78° (ENE) 01:30:00
AUBIESAT-1 02 Sep 01:25:33 01:27:10 12° 303° (WNW) 01:28:36 437.475
SWISSCUBE 02 Sep 01:26:15 01:30:47 46° 71° (ENE) 01:35:21 437.505
POLYITAN 1 02 Sep 01:37:37 01:40:02 14° 296° (WNW) 01:42:18 437.675
DUCHIFAT 1 02 Sep 01:38:57 01:41:25 15° 296° (WNW) 01:43:42 145.980
POPSAT HIP 1 02 Sep 01:39:46 01:42:07 14° 296° (WNW) 01:44:17 437.405
BUGSAT 1 02 Sep 01:40:17 01:43:32 21° 293° (WNW) 01:46:40 437.445
Oscar 19 02 Sep 01:49:38 01:54:17 33° 96° (E) 01:58:58 437.125/150
KKS-1 02 Sep 01:53:22 01:55:29 14° 63° (ENE) 01:57:48 437.445
SPROUT 02 Sep 01:54:23 01:55:02 10° 273° (W) 01:55:24 437.525
Cosmos 2504 02 Sep 01:58:21 02:03:35 17° 303° (WNW) 02:08:28 435.465 / 435.565
CUSAT 1 02 Sep 02:00:12 02:02:16 12° 306° (NW) 02:04:17 437.405
ITUPSAT 1 02 Sep 02:05:09 02:09:56 81° 259° (WSW) 02:14:44 437.325
SO-50 02 Sep 02:20:01 02:24:20 31° 314° (NW) 02:28:45 436.795
PCSat 02 Sep 02:29:52 02:35:14 62° 303° (WNW) 02:40:38 145.827
BEESAT 02 Sep 02:38:01 02:42:27 37° 263° (W) 02:46:51 436.000
Gurwin Techsat 1B 02 Sep 02:40:57 02:45:38 32° 95° (E) 02:50:22 435.225
JAS-2 02 Sep 02:45:09 02:49:52 20° 86° (E) 02:54:28 435.910
ITAMSAT 1 02 Sep 02:51:22 02:55:55 31° 95° (E) 03:00:32 435.822/435.867
RS-15 02 Sep 02:57:09 03:07:57 41° 251° (WSW) 03:18:45 29.354- 29.394
STARS 02 Sep 03:05:25 03:09:35 43° 71° (ENE) 03:13:49 437.465
SWISSCUBE 02 Sep 03:05:29 03:08:55 19° 269° (W) 03:12:13 437.505
Cosmos 2499 02 Sep 03:10:37 03:16:47 24° 81° (E) 03:23:29 435.465 / 435.565
GONETS M04 02 Sep 03:11:51 03:20:32 84° 96° (E) 03:29:19
VERMONT LUNAR 02 Sep 03:15:14 03:17:40 22° 157° (SSE) 03:20:06 437.305
KKS-1 02 Sep 03:27:12 03:31:37 65° 258° (WSW) 03:36:06 437.445
Oscar 19 02 Sep 03:29:01 03:33:36 31° 293° (WNW) 03:38:06 437.125/150
MOZHAYETS 4 02 Sep 03:49:42 03:53:45 31° 69° (ENE) 03:57:50
O/OREOS (USA 219) 02 Sep 04:00:49 04:04:41 26° 57° (ENE) 04:08:35 437.305
AO-7 02 Sep 04:07:18 04:14:33 34° 95° (E) 04:21:55 29.400- 29.500
PCSat 02 Sep 04:17:21 04:19:52 13° 325° (NW) 04:22:12 145.827
Gurwin Techsat 1B 02 Sep 04:20:51 04:25:37 34° 292° (WNW) 04:30:19 435.225
PHONESAT 2.4 02 Sep 04:26:07 04:26:37 10° 147° (SSE) 04:27:13 2401.200-2431.200
JAS-2 02 Sep 04:28:50 04:35:50 68° 288° (WNW) 04:41:56 435.910
HORYU 2 02 Sep 04:29:51 04:33:56 35° 97° (E) 04:38:02 437.375
ITAMSAT 1 02 Sep 04:30:48 04:35:26 33° 292° (WNW) 04:40:00 435.822/435.867
STARS 02 Sep 04:43:12 04:46:17 18° 269° (W) 04:49:13 437.465
VERMONT LUNAR 02 Sep 04:50:51 04:53:48 58° 173° (S) 04:56:45 437.305
Cosmos 2499 02 Sep 05:00:35 05:09:05 76° 280° (W) 05:18:01 435.465 / 435.565
GONETS M04 02 Sep 05:12:16 05:18:43 21° 299° (WNW) 05:24:50
MOZHAYETS 4 02 Sep 05:27:04 05:30:59 26° 266° (W) 05:34:50
O/OREOS (USA 219) 02 Sep 05:40:01 05:44:10 33° 255° (WSW) 05:48:15 437.305
CUBESAT XI-V 02 Sep 05:47:03 05:51:24 45° 72° (ENE) 05:55:49 437.345
AO-7 02 Sep 05:59:41 06:07:46 56° 295° (WNW) 06:15:44 29.400- 29.500
PHONESAT 2.4 02 Sep 06:00:47 06:03:57 36° 162° (SSE) 06:07:08 2401.200-2431.200
HORYU 2 02 Sep 06:06:52 06:10:24 23° 293° (WNW) 06:13:48 437.375
STRAND 1 02 Sep 06:12:11 06:16:18 26° 66° (ENE) 06:20:31 437.568
JAS-2 02 Sep 06:16:20 06:19:32 13° 308° (NW) 06:22:16 435.910
Cubesat XI-IV 02 Sep 06:21:05 06:25:05 22° 92° (E) 06:29:13 437.490
VERMONT LUNAR 02 Sep 06:27:10 06:30:06 54° 189° (S) 06:33:01 437.305
YUBILEINY 02 Sep 06:39:06 06:44:40 19° 58° (ENE) 06:50:39 435.215
Cosmos 2499 02 Sep 06:58:39 07:04:08 17° 304° (WNW) 07:09:14 435.465 / 435.565
CUTE-I 02 Sep 07:04:46 07:10:00 55° 100° (E) 07:15:13 437.470
PRISM 02 Sep 07:10:57 07:14:59 63° 74° (ENE) 07:19:02 437.425
BRITE-PL 02 Sep 07:17:10 07:20:31 17° 88° (E) 07:24:10 437.365/2234.400
CUBESAT XI-V 02 Sep 07:25:56 07:29:08 18° 269° (W) 07:32:11 437.345
Cosmos 2491 02 Sep 07:30:47 07:35:20 16° 78° (ENE) 07:40:26 435.465 / 435.565
AIST 1 02 Sep 07:34:46 07:38:16 26° 90° (E) 07:41:51
PHONESAT 2.4 02 Sep 07:38:14 07:41:38 68° 178° (S) 07:45:01 2401.200-2431.200
GOMX 1 02 Sep 07:38:41 07:41:42 15° 87° (E) 07:44:59 467.674
ISS 02 Sep 07:45:31 07:47:43 17° 133° (SE) 07:49:59 145.825
STRAND 1 02 Sep 07:50:34 07:55:20 39° 262° (W) 08:00:06 437.568
AO-7 02 Sep 07:55:08 07:58:56 14° 315° (NW) 08:02:17 29.400- 29.500
Cubesat XI-IV 02 Sep 08:00:22 08:05:29 48° 290° (WNW) 08:10:35 437.490
VERMONT LUNAR 02 Sep 08:03:56 08:06:11 19° 205° (SSW) 08:08:24 437.305
SEEDS 02 Sep 08:28:55 08:29:48 11° 87° (E) 08:30:58 437.485
YUBILEINY 02 Sep 08:34:13 08:43:08 85° 83° (E) 08:51:56 435.215
CUTE-I 02 Sep 08:45:46 08:49:43 21° 296° (WNW) 08:53:32 437.470
COMPASS 1 02 Sep 08:47:08 08:49:11 14° 89° (E) 08:51:26 437.405
PRISM 02 Sep 08:50:02 08:50:54 10° 272° (W) 08:51:32 437.425
BRITE-PL 02 Sep 08:54:01 08:59:33 71° 285° (WNW) 09:05:13 437.365/2234.400
AAUSAT CUBESAT 2 02 Sep 08:55:46 08:57:59 14° 90° (E) 09:00:22 437.432
AUBIESAT-1 02 Sep 09:04:43 09:06:11 12° 57° (ENE) 09:07:51 437.475
CUSAT 1 02 Sep 09:07:54 09:11:53 15° 57° (ENE) 09:16:28 437.405
SO-50 02 Sep 09:10:14 09:14:54 40° 48° (NE) 09:19:30 436.795
M-CUBED/EXP-1 PRIME 02 Sep 09:10:17 09:13:00 16° 59° (ENE) 09:15:51 437.505
AIST 1 02 Sep 09:12:20 09:15:53 25° 287° (WNW) 09:19:24
GOMX 1 02 Sep 09:14:57 09:20:25 74° 285° (WNW) 09:25:54 467.674
ANTELSAT 02 Sep 09:15:29 09:17:32 13° 62° (ENE) 09:19:48 437.575/2403.000
PHONESAT 2.4 02 Sep 09:16:05 09:19:21 46° 195° (SSW) 09:22:38 2401.200-2431.200
ISS 02 Sep 09:20:39 09:23:52 57° 329° (NNW) 09:27:06 145.825
DOVE 4 02 Sep 09:20:44 09:26:07 82° 104° (ESE) 09:31:22 437.250
Cosmos 2491 02 Sep 09:22:19 09:31:01 84° 96° (E) 09:39:47 435.465 / 435.565
HO-68 02 Sep 09:23:44 09:30:51 60° 102° (ESE) 09:37:57 435.675
CUTE 1.7 + AOD 2 02 Sep 09:29:07 09:33:21 69° 101° (E) 09:37:31 437.475
ZACube-1 02 Sep 09:30:21 09:30:48 10° 86° (E) 09:31:33 437.345
FUNcube-1 02 Sep 09:34:16 09:35:28 11° 86° (E) 09:36:57 145.935
PCSat 02 Sep 09:34:45 09:38:44 21° 43° (NE) 09:42:49 145.827
CUBEBUG 2 02 Sep 09:34:52 09:38:26 22° 91° (E) 09:42:01 437.445
UWE-3 02 Sep 09:38:42 09:41:47 18° 90° (E) 09:44:58 435.000/436.395/437.385
CANX-2 02 Sep 09:43:24 09:47:38 73° 285° (WNW) 09:51:49 2200.000
DANDE 02 Sep 09:46:38 09:51:51 20° 63° (ENE) 09:57:51 436.750
Cosmos 2504 02 Sep 09:48:06 09:55:49 38° 70° (ENE) 10:03:12 435.465 / 435.565
CINEMA 3 02 Sep 09:54:33 09:59:35 79° 101° (E) 10:04:27 145.822/145.860
QB50P1 02 Sep 09:55:01 09:55:37 10° 62° (ENE) 09:56:27 145.935-145.965
SEEDS 02 Sep 10:01:57 10:06:07 63° 285° (WNW) 10:10:13 437.485
UNISAT 6 02 Sep 10:03:47 10:08:06 38° 71° (ENE) 10:12:28 437.425
Oscar 11 02 Sep 10:16:32 10:20:45 51° 99° (E) 10:24:57 145.826/435.025
COMPASS 1 02 Sep 10:21:10 10:25:12 48° 287° (WNW) 10:29:10 437.405
AAUSAT CUBESAT 2 02 Sep 10:29:55 10:33:53 46° 287° (WNW) 10:37:49 437.432
TIGRISAT 02 Sep 10:31:15 10:35:54 69° 75° (ENE) 10:40:37 435.000
YUBILEINY 02 Sep 10:32:54 10:38:57 20° 280° (W) 10:44:32 435.215
AUBIESAT-1 02 Sep 10:35:31 10:40:17 85° 70° (ENE) 10:44:56 437.475
BRITE-PL 02 Sep 10:35:34 10:37:15 11° 300° (WNW) 10:38:38 437.365/2234.400
DELFI C3 02 Sep 10:41:53 10:45:51 65° 101° (E) 10:49:48 145.870
M-CUBED/EXP-1 PRIME 02 Sep 10:42:29 10:47:17 71° 253° (WSW) 10:52:01 437.505
CUSAT 1 02 Sep 10:48:06 10:55:55 66° 77° (ENE) 11:04:07 437.405
ANTELSAT 02 Sep 10:49:03 10:53:45 76° 258° (WSW) 10:58:29 437.575/2403.000
SO-50 02 Sep 10:51:06 10:55:20 28° 246° (WSW) 10:59:22 436.795
POLYITAN 1 02 Sep 10:53:29 10:57:32 44° 72° (ENE) 11:01:39 437.675
DUCHIFAT 1 02 Sep 10:54:21 10:58:20 42° 72° (ENE) 11:02:22 145.980
PHONESAT 2.4 02 Sep 10:54:45 10:56:47 15° 210° (SSW) 10:58:45 2401.200-2431.200
BUGSAT 1 02 Sep 10:55:03 10:58:26 26° 69° (ENE) 11:01:56 437.445
POPSAT HIP 1 02 Sep 10:55:23 10:59:26 45° 72° (ENE) 11:03:33 437.405
GOMX 1 02 Sep 10:55:57 10:57:43 11° 300° (WNW) 10:59:10 467.674
ISS 02 Sep 10:58:28 11:00:49 18° 348° (NNW) 11:03:08 145.825
DOVE 4 02 Sep 11:00:13 11:03:12 15° 298° (WNW) 11:05:56 437.250
ZACube-1 02 Sep 11:03:18 11:07:49 74° 285° (WNW) 11:12:11 437.345
CUTE 1.7 + AOD 2 02 Sep 11:07:12 11:08:44 12° 297° (WNW) 11:10:04 437.475
FUNcube-1 02 Sep 11:07:55 11:12:24 68° 285° (WNW) 11:16:44 145.935
VELOX 1 02 Sep 11:08:59 11:11:53 17° 91° (E) 11:14:56 145.980
50 SAT 02 Sep 11:09:23 11:12:06 19° 92° (E) 11:14:54 437.505
CUBEBUG 2 02 Sep 11:10:56 11:15:17 38° 289° (WNW) 11:19:28 437.445
HO-68 02 Sep 11:12:11 11:18:12 29° 300° (WNW) 11:24:01 435.675
NANOSAT C BR1 02 Sep 11:12:14 11:16:27 69° 76° (ENE) 11:20:44 145.865
QB50P2 02 Sep 11:12:36 11:16:51 74° 75° (ENE) 11:21:08 145.880/145.840
UWE-3 02 Sep 11:14:13 11:18:36 44° 288° (WNW) 11:22:49 435.000/436.395/437.385
PCSat 02 Sep 11:17:19 11:22:45 72° 243° (WSW) 11:28:08 145.827
Cosmos 2491 02 Sep 11:22:44 11:29:12 21° 299° (WNW) 11:35:19 435.465 / 435.565
QB50P1 02 Sep 11:26:39 11:30:53 80° 258° (WSW) 11:35:11 145.935-145.965
DANDE 02 Sep 11:28:12 11:35:56 86° 80° (E) 11:44:32 436.750
CINEMA 3 02 Sep 11:33:35 11:36:08 14° 298° (WNW) 11:38:26 145.822/145.860
HUMSAT D 02 Sep 11:34:06 11:38:22 86° 283° (WNW) 11:42:32 437.325/437.525
Cosmos 2504 02 Sep 11:40:13 11:48:16 48° 271° (W) 11:55:44 435.465 / 435.565
UNISAT 6 02 Sep 11:41:13 11:44:59 23° 267° (W) 11:48:42 437.425
DX 1 02 Sep 11:47:23 11:51:48 70° 103° (ESE) 11:56:10 434.975-435.025
Oscar 11 02 Sep 11:53:57 11:56:33 15° 295° (WNW) 11:59:00 145.826/435.025
UKube-1 02 Sep 11:57:14 12:01:36 81° 101° (E) 12:05:57 .
SPROUT 02 Sep 12:02:17 12:03:55 12° 88° (E) 12:05:46 437.525
ESTCUBE 1 02 Sep 12:09:48 12:14:16 59° 100° (E) 12:18:42 437.505/2401.250
TIGRISAT 02 Sep 12:11:04 12:13:12 13° 273° (W) 12:15:06 435.000
CUBEBUG 1 02 Sep 12:11:42 12:16:00 50° 99° (E) 12:20:19 437.445
AUBIESAT-1 02 Sep 12:14:15 12:15:32 11° 268° (W) 12:16:32 437.475
AISAT 02 Sep 12:16:33 12:21:04 86° 284° (WNW) 12:25:33 437.250
DELFI C3 02 Sep 12:19:17 12:20:25 11° 296° (WNW) 12:21:22 145.870
BUGSAT 1 02 Sep 12:30:25 12:33:51 25° 266° (W) 12:37:17 437.445
POLYITAN 1 02 Sep 12:30:54 12:33:42 16° 269° (W) 12:36:22 437.675
CUSAT 1 02 Sep 12:31:26 12:38:05 29° 273° (W) 12:44:42 437.405
DUCHIFAT 1 02 Sep 12:31:30 12:34:21 17° 269° (W) 12:37:05 145.980
POPSAT HIP 1 02 Sep 12:32:52 12:35:35 16° 270° (W) 12:38:09 437.405
ISS 02 Sep 12:35:56 12:38:07 16° 8° (N) 12:40:19 145.825
50 SAT 02 Sep 12:43:16 12:46:43 30° 289° (WNW) 12:50:05 437.505
VELOX 1 02 Sep 12:44:25 12:48:43 45° 288° (WNW) 12:52:58 145.980
NANOSAT C BR1 02 Sep 12:52:08 12:52:51 10° 273° (W) 12:53:17 145.865
TISAT 1 02 Sep 12:57:36 13:01:15 27° 95° (E) 13:04:56 437.305
JAS-2 02 Sep 12:59:01 13:02:26 14° 53° (NE) 13:06:16 435.910
Oscar 19 02 Sep 13:06:43 13:11:40 50° 72° (ENE) 13:16:43 437.125/150
DANDE 02 Sep 13:12:47 13:18:32 22° 274° (W) 13:24:17 436.750
AO-7 02 Sep 13:21:07 13:23:23 12° 43° (NE) 13:26:08 29.400- 29.500
GONETS M04 02 Sep 13:21:43 13:29:58 43° 72° (ENE) 13:38:19
DX 1 02 Sep 13:25:35 13:27:31 12° 298° (WNW) 13:29:15 434.975-435.025
SWISSCUBE 02 Sep 13:28:32 13:29:45 11° 87° (E) 13:31:18 437.505
UKube-1 02 Sep 13:36:01 13:37:09 11° 298° (WNW) 13:38:02 .
SPROUT 02 Sep 13:36:10 13:40:28 61° 286° (WNW) 13:44:44 437.525
ESTCUBE 1 02 Sep 13:48:06 13:50:42 15° 296° (WNW) 13:53:08 437.505/2401.250
CUBEBUG 1 02 Sep 13:49:09 13:52:00 17° 295° (WNW) 13:54:42 437.445
Gurwin Techsat 1B 02 Sep 14:02:18 14:07:25 52° 71° (ENE) 14:12:36 435.225
ITUPSAT 1 02 Sep 14:05:50 14:09:43 25° 94° (E) 14:13:40 437.325
ITAMSAT 1 02 Sep 14:09:38 14:14:36 50° 71° (ENE) 14:19:36 435.822/435.867
BEESAT 3 02 Sep 14:11:40 14:15:04 26° 115° (ESE) 14:18:32 437.485
ISS 02 Sep 14:12:02 14:15:10 42° 28° (NNE) 14:18:17 145.825
BEESAT 2 02 Sep 14:26:26 14:29:56 28° 115° (ESE) 14:33:32 435.950
TISAT 1 02 Sep 14:33:19 14:36:57 26° 291° (WNW) 14:40:29 437.305
BEESAT 02 Sep 14:37:18 14:41:59 53° 100° (E) 14:46:37 436.000
JAS-2 02 Sep 14:38:33 14:46:07 61° 71° (ENE) 14:53:50 435.910
Oscar 19 02 Sep 14:47:30 14:51:22 20° 269° (W) 14:55:06 437.125/150
Cosmos 2499 02 Sep 14:52:08 15:00:15 43° 71° (ENE) 15:07:54 435.465 / 435.565
SWISSCUBE 02 Sep 15:03:30 15:08:16 77° 286° (WNW) 15:13:01 437.505
AO-7 02 Sep 15:06:30 15:14:21 49° 64° (ENE) 15:22:17 29.400- 29.500
RS-15 02 Sep 15:09:38 15:18:58 36° 107° (ESE) 15:28:52 29.354- 29.394
AIST 2 02 Sep 15:16:13 15:19:15 20° 112° (ESE) 15:22:25 435.215
KKS-1 02 Sep 15:18:23 15:21:58 23° 94° (E) 15:25:36 437.445
GONETS M04 02 Sep 15:18:41 15:26:52 43° 272° (W) 15:34:55
HORYU 2 02 Sep 15:28:21 15:32:25 35° 70° (ENE) 15:36:33 437.375
ITUPSAT 1 02 Sep 15:43:21 15:47:42 35° 291° (WNW) 15:51:59 437.325
Gurwin Techsat 1B 02 Sep 15:43:49 15:47:46 20° 269° (W) 15:51:34 435.225
ISS 02 Sep 15:48:44 15:51:27 24° 224° (SW) 15:54:07 145.825
BEESAT 3 02 Sep 15:49:15 15:52:55 30° 312° (NW) 15:56:33 437.485
ITAMSAT 1 02 Sep 15:50:35 15:54:26 20° 268° (W) 15:58:09 435.822/435.867
BEESAT 2 02 Sep 16:04:18 16:07:57 29° 313° (NW) 16:11:34 435.950
BEESAT 02 Sep 16:16:12 16:19:26 18° 296° (WNW) 16:22:32 436.000
JAS-2 02 Sep 16:24:52 16:31:34 30° 269° (W) 16:38:12 435.910
STARS 02 Sep 16:30:36 16:35:05 82° 103° (ESE) 16:39:31 437.465
Cosmos 2499 02 Sep 16:45:28 16:53:26 42° 273° (W) 17:00:47 435.465 / 435.565
CUTE-I 02 Sep 16:50:41 16:53:00 13° 59° (ENE) 16:55:33 437.470
AIST 2 02 Sep 16:53:30 16:57:34 42° 309° (NW) 17:01:38 435.215
KKS-1 02 Sep 16:54:35 16:58:41 34° 290° (WNW) 17:02:41 437.445
AO-7 02 Sep 16:59:35 17:07:20 40° 263° (W) 17:14:59 29.400- 29.500
HORYU 2 02 Sep 17:05:35 17:09:10 22° 267° (W) 17:12:40 437.375
RS-15 02 Sep 17:19:49 17:30:43 67° 310° (NW) 17:42:07 29.354- 29.394
MOZHAYETS 4 02 Sep 17:20:45 17:25:19 70° 101° (ESE) 17:29:52
Cubesat XI-IV 02 Sep 17:43:18 17:48:09 38° 69° (ENE) 17:53:03 437.490
CUBESAT XI-V 02 Sep 17:45:37 17:46:45 11° 87° (E) 17:48:13 437.345
STARS 02 Sep 18:09:37 18:10:55 11° 299° (WNW) 18:12:00 437.465
O/OREOS (USA 219) 02 Sep 18:13:45 18:17:27 26° 104° (ESE) 18:21:17 437.305
CUTE-I 02 Sep 18:27:05 18:32:24 89° 249° (WSW) 18:37:46 437.470
BRITE-PL 02 Sep 18:29:31 18:32:07 16° 63° (ENE) 18:35:01 437.365/2234.400
GOMX 1 02 Sep 18:48:03 18:50:33 15° 62° (ENE) 18:53:22 467.674
DOVE 4 02 Sep 18:53:32 18:54:12 10° 59° (ENE) 18:55:09 437.250
MOZHAYETS 4 02 Sep 18:59:52 19:02:02 13° 297° (WNW) 19:03:58
AIST 1 02 Sep 19:17:51 19:22:13 80° 81° (E) 19:26:34
CUBESAT XI-V 02 Sep 19:20:10 19:24:50 75° 284° (WNW) 19:29:29 437.345
Cubesat XI-IV 02 Sep 19:23:46 19:28:21 28° 266° (W) 19:32:51 437.490
Cosmos 2491 02 Sep 19:32:18 19:40:30 43° 72° (ENE) 19:48:48 435.465 / 435.565
RS-15 02 Sep 19:36:42 19:45:57 27° 340° (NNW) 19:55:21 29.354- 29.394
COMPASS 1 02 Sep 19:40:00 19:41:12 11° 64° (ENE) 19:42:37 437.405
YUBILEINY 02 Sep 19:42:24 19:47:57 20° 80° (E) 19:53:59 435.215
AAUSAT CUBESAT 2 02 Sep 19:48:07 19:49:29 12° 64° (ENE) 19:51:03 437.432
HO-68 02 Sep 19:52:35 19:59:18 47° 66° (ENE) 20:06:09 435.675
O/OREOS (USA 219) 02 Sep 19:52:41 19:56:48 32° 301° (WNW) 20:00:54 437.305
STRAND 1 02 Sep 20:00:07 20:05:13 68° 101° (E) 20:10:19 437.568
BRITE-PL 02 Sep 20:05:48 20:10:08 57° 261° (W) 20:14:51 437.365/2234.400
CUTE-I 02 Sep 20:12:03 20:13:22 11° 274° (W) 20:14:19 437.470
CUTE 1.7 + AOD 2 02 Sep 20:22:04 20:26:12 51° 74° (ENE) 20:30:23 437.475
GOMX 1 02 Sep 20:23:35 20:28:06 65° 259° (W) 20:33:00 467.674
DOVE 4 02 Sep 20:26:26 20:31:06 82° 76° (ENE) 20:36:06 437.250
ZACube-1 02 Sep 20:27:09 20:27:50 10° 61° (ENE) 20:28:48 437.345
PRISM 02 Sep 20:27:45 20:31:53 82° 285° (WNW) 20:36:00 437.425
FUNcube-1 02 Sep 20:30:57 20:32:11 11° 62° (ENE) 20:33:40 145.935
CUBEBUG 2 02 Sep 20:33:30 20:36:55 21° 66° (ENE) 20:40:32 437.445
CANX-2 02 Sep 20:36:15 20:40:33 83° 77° (ENE) 20:44:51 2200.000
UWE-3 02 Sep 20:36:24 20:39:23 18° 65° (ENE) 20:42:34 435.000/436.395/437.385
SEEDS 02 Sep 20:53:50 20:58:06 88° 265° (W) 21:02:22 437.485
CINEMA 3 02 Sep 20:56:06 21:00:48 74° 75° (ENE) 21:05:45 145.822/145.860
Oscar 11 02 Sep 21:11:33 21:15:38 42° 72° (ENE) 21:19:46 145.826/435.025
COMPASS 1 02 Sep 21:12:08 21:16:21 71° 258° (WSW) 21:20:34 437.405
AAUSAT CUBESAT 2 02 Sep 21:20:25 21:24:35 67° 259° (W) 21:28:46 437.432
DELFI C3 02 Sep 21:29:07 21:32:55 41° 72° (ENE) 21:36:44 145.870
Cosmos 2491 02 Sep 21:29:18 21:37:25 43° 272° (W) 21:45:25 435.465 / 435.565
YUBILEINY 02 Sep 21:34:58 21:43:46 85° 277° (W) 21:52:41 435.215
STRAND 1 02 Sep 21:40:45 21:43:57 16° 298° (WNW) 21:46:57 437.568
HO-68 02 Sep 21:40:46 21:47:14 35° 264° (W) 21:53:38 435.675
